GW2629 Weather Reports


Display with metric or nautical units.
time (UTC)temp
F
wind
direction
speed
MPH
gust
MPH
rain 1hr
in
rain 24hr
in
rain mn
in
humidity
%
barometer
mb
20260506073051 61 0 0.0 0.0 0.00 0.07 0.00 82 1018.1
20260506072539 61 0 0.0 0.0 0.00 0.07 0.00 82 1018.0
20260506072037 61 0 0.0 0.0 0.00 0.07 0.00 82 1017.9
20260506071550 61 0 0.0 0.0 0.00 0.07 0.00 81 1017.9
20260506071037 61 0 0.0 0.0 0.00 0.07 0.00 82 1017.9
20260506070537 61 0 0.0 0.0 0.00 0.07 0.00 81 1017.9
20260506062037 62 0 0.0 0.0 0.00 0.09 0.07 80 1017.7
20260506061549 62 0 0.0 0.0 0.00 0.09 0.07 80 1017.7
20260506061038 62 0 0.0 0.0 0.00 0.09 0.07 79 1017.7
20260506060537 62 0 0.0 0.0 0.00 0.09 0.07 80 1017.6
20260506051040 63 0 0.0 0.0 0.00 0.13 0.07 76 1017.1
20260506050537 63 0 0.0 0.0 0.00 0.13 0.07 75 1017.1
20260506045037 63 0 0.0 0.0 0.00 0.23 0.07 75 1016.8
20260506044551 63 0 0.0 0.0 0.00 0.23 0.07 74 1016.7
20260506044037 63 0 0.0 0.0 0.00 0.23 0.07 74 1016.6
20260506043539 63 0 0.0 0.0 0.00 0.23 0.07 75 1016.5
20260506043044 63 0 0.0 0.0 0.00 0.23 0.07 74 1016.5
20260506042534 63 0 0.0 0.0 0.00 0.23 0.07 74 1016.4
20260506042037 63 0 0.0 0.0 0.00 0.23 0.07 74 1016.2
20260506041544 63 0 0.0 0.0 0.00 0.23 0.07 73 1016.2
20260506041036 63 0 0.0 0.0 0.00 0.23 0.07 74 1016.1
20260506040537 63 0 0.0 0.0 0.00 0.23 0.07 74 1016.0
20260506040043 63 0 0.0 0.0 0.00 0.23 0.07 73 1015.9
20260506035537 63 0 0.0 1.0 0.00 0.26 0.07 74 1015.8
20260506035037 63 0 0.0 1.0 0.00 0.26 0.07 73 1015.8
20260506034608 63 0 0.0 1.0 0.00 0.26 0.07 73 1015.7
20260506034037 63 0 0.0 0.0 0.00 0.26 0.07 73 1015.5
20260506033537 63 0 0.0 0.0 0.00 0.26 0.07 73 1015.3
20260506033046 63 0 0.0 0.0 0.00 0.26 0.07 72 1015.3
20260506032537 64 0 0.0 0.0 0.00 0.26 0.07 72 1015.2
20260506032037 64 0 0.0 0.0 0.00 0.26 0.07 72 1015.1
20260506031551 64 0 0.0 0.0 0.00 0.26 0.07 72 1015.0
20260506031037 64 0 0.0 0.0 0.00 0.26 0.07 71 1014.9
20260506030537 64 0 0.0 0.0 0.00 0.26 0.07 71 1014.9
20260506030045 64 0 0.0 2.0 0.00 0.26 0.07 72 1014.7
20260506025540 64 0 0.0 2.0 0.00 0.28 0.07 71 1014.6
20260506025038 64 0 0.0 0.0 0.00 0.28 0.07 70 1014.5
20260506024553 64 0 0.0 2.0 0.00 0.28 0.07 70 1014.5
20260506024038 64 0 0.0 2.0 0.00 0.28 0.07 70 1014.4
20260506023538 64 0 0.0 2.0 0.00 0.28 0.07 70 1014.4
20260506023056 64 0 0.0 2.0 0.00 0.28 0.07 70 1014.2
20260506022539 64 0 0.0 2.0 0.00 0.28 0.07 69 1014.1
20260506022037 64 0 0.0 1.0 0.00 0.28 0.07 70 1014.1
20260506021550 64 0 0.0 1.0 0.00 0.28 0.07 69 1014.1
20260506021038 65 0 0.0 1.0 0.00 0.28 0.07 69 1014.0
20260506020539 65 0 0.0 1.0 0.00 0.28 0.07 69 1013.9
20260506020045 65 0 0.0 1.0 0.00 0.28 0.07 69 1013.8
20260506015537 65 0 0.0 1.0 0.00 0.28 0.07 69 1013.8
20260506015037 65 0 0.0 1.0 0.00 0.28 0.07 69 1013.8
20260506014547 65 0 0.0 0.0 0.00 0.28 0.07 69 1013.8
20260506014037 65 0 0.0 1.0 0.00 0.28 0.07 68 1013.7
20260506013540 65 0 0.0 1.0 0.00 0.28 0.07 68 1013.7
20260506013057 65 0 0.0 1.0 0.00 0.28 0.07 68 1013.7
20260506012537 65 0 0.0 0.0 0.00 0.28 0.07 68 1013.6
20260506012039 65 0 0.0 0.0 0.00 0.28 0.07 68 1013.5
20260506011547 66 0 0.0 1.0 0.00 0.28 0.07 68 1013.5
20260506011037 66 0 0.0 1.0 0.00 0.28 0.07 68 1013.4
20260506010538 66 0 0.0 1.0 0.00 0.28 0.07 67 1013.4
20260506010054 66 0 0.0 1.0 0.00 0.28 0.07 68 1013.4
20260506005537 66 0 0.0 1.0 0.00 0.28 0.07 67 1013.5
20260506005037 66 0 0.0 0.0 0.00 0.28 0.07 67 1013.4
20260506004545 66 0 0.0 1.0 0.00 0.28 0.07 67 1013.3
20260506004037 66 0 0.0 1.0 0.00 0.28 0.07 68 1013.3
20260506003537 66 0 0.0 2.0 0.00 0.28 0.07 68 1013.2
20260506003045 66 0 0.0 2.0 0.00 0.28 0.07 68 1013.2
20260506002537 66 0 0.0 1.0 0.00 0.28 0.07 68 1013.1
20260506002037 66 0 0.0 2.0 0.00 0.28 0.07 66 1013.1
20260506001554 66 0 0.0 2.0 0.00 0.28 0.07 66 1013.1
20260506001037 67 0 0.0 1.0 0.00 0.28 0.07 67 1013.2
20260506000537 67 0 0.0 1.0 0.00 0.28 0.07 66 1013.1
20260506000045 67 0 0.0 0.0 0.00 0.28 0.07 68 1013.2
20260505235537 67 0 0.0 0.0 0.00 0.28 0.07 68 1013.1
20260505235037 67 0 0.0 0.0 0.00 0.28 0.07 67 1013.1
20260505234545 67 0 0.0 1.0 0.00 0.28 0.07 67 1013.1
20260505234040 67 0 0.0 2.0 0.00 0.28 0.07 66 1013.1
20260505233538 67 0 0.0 3.0 0.00 0.28 0.07 66 1013.1
20260505233047 67 0 0.0 3.0 0.00 0.28 0.07 66 1013.1
20260505232537 68 0 0.0 3.0 0.00 0.28 0.07 65 1013.1
20260505232037 68 0 0.0 3.0 0.00 0.28 0.07 65 1013.0
20260505231545 68 0 0.0 3.0 0.00 0.28 0.07 64 1013.1
20260505231038 68 0 0.0 0.0 0.00 0.28 0.07 65 1013.2
20260505230537 67 0 0.0 2.0 0.00 0.28 0.07 65 1013.2
20260505230053 67 0 0.0 2.0 0.00 0.28 0.07 65 1013.3
20260505225538 67 0 0.0 2.0 0.00 0.28 0.07 64 1013.2
20260505225034 68 0 0.0 2.0 0.00 0.28 0.07 65 1013.3
20260505224547 68 0 0.0 1.0 0.00 0.28 0.07 65 1013.3
20260505224042 68 0 0.0 1.0 0.00 0.28 0.07 65 1013.4
20260505223537 68 0 0.0 1.0 0.00 0.28 0.07 64 1013.5
20260505223046 68 0 0.0 1.0 0.00 0.28 0.07 64 1013.5
20260505222537 68 0 0.0 1.0 0.00 0.28 0.07 65 1013.5
20260505222037 69 0 0.0 1.0 0.00 0.28 0.07 64 1013.5
20260505221544 69 0 0.0 1.0 0.00 0.28 0.07 62 1013.6
20260505221036 70 0 0.0 1.0 0.00 0.28 0.07 60 1013.6
20260505220537 70 0 0.0 0.0 0.00 0.28 0.07 60 1013.7
20260505220052 70 0 0.0 0.0 0.00 0.28 0.07 60 1013.7
20260505215538 70 0 0.0 0.0 0.00 0.28 0.07 59 1013.6
20260505215037 70 0 0.0 2.0 0.00 0.28 0.07 60 1013.8
20260505214550 70 0 0.0 2.0 0.00 0.28 0.07 61 1013.8
20260505214037 69 0 0.0 2.0 0.00 0.28 0.07 61 1013.9
20260505213537 69 0 0.0 3.0 0.00 0.28 0.07 63 1013.9
20260505213048 68 0 0.0 3.0 0.00 0.28 0.07 63 1014.0
20260505212537 67 0 0.0 0.0 0.00 0.28 0.07 63 1013.9
20260505212037 67 0 0.0 0.0 0.00 0.28 0.07 67 1014.0
20260505211548 66 0 0.0 2.0 0.00 0.28 0.07 67 1014.1
20260505211036 66 0 0.0 3.0 0.00 0.28 0.07 66 1014.1
20260505210537 66 0 0.0 3.0 0.00 0.28 0.07 68 1014.1
20260505210047 66 180 0.0 1.0 0.00 0.28 0.07 66 1014.1
20260505205537 66 0 0.0 0.0 0.00 0.28 0.07 67 1014.1
20260505205037 66 0 0.0 0.0 0.00 0.28 0.07 67 1014.2
20260505204550 65 0 0.0 0.0 0.00 0.28 0.07 69 1014.2
20260505204037 65 0 0.0 0.0 0.00 0.28 0.07 69 1014.2
20260505203537 65 0 0.0 0.0 0.00 0.28 0.07 68 1014.3
20260505203049 65 0 0.0 0.0 0.00 0.28 0.07 69 1014.3
20260505202538 64 0 0.0 0.0 0.00 0.28 0.07 70 1014.3
20260505202040 64 0 0.0 0.0 0.00 0.28 0.07 71 1014.3
20260505201554 64 0 0.0 0.0 0.00 0.28 0.07 70 1014.4
20260505201037 64 0 0.0 1.0 0.00 0.28 0.07 70 1014.5
20260505200536 64 0 0.0 1.0 0.00 0.28 0.07 71 1014.6
20260505200049 64 0 0.0 1.0 0.00 0.28 0.07 72 1014.6
20260505195537 64 0 0.0 1.0 0.00 0.28 0.07 71 1014.6
20260505195037 64 135 0.0 3.0 0.00 0.28 0.07 71 1014.6
20260505194552 64 0 0.0 3.0 0.00 0.28 0.07 71 1014.6
20260505194037 64 0 0.0 2.0 0.00 0.28 0.07 70 1014.6
20260505193537 64 0 0.0 2.0 0.00 0.28 0.07 68 1014.6
20260505193046 64 0 0.0 2.0 0.00 0.28 0.07 68 1014.7
20260505192537 64 138 0.0 0.0 0.00 0.28 0.07 72 1014.7
20260505192037 64 0 0.0 2.0 0.00 0.28 0.07 71 1014.9
20260505191602 64 0 0.0 2.0 0.00 0.28 0.07 70 1014.9
20260505191039 64 0 0.0 1.0 0.00 0.28 0.07 72 1014.9
20260505190541 64 0 0.0 1.0 0.00 0.28 0.07 71 1014.9
20260505190055 64 0 0.0 1.0 0.00 0.28 0.07 71 1014.7
20260505185537 64 0 0.0 1.0 0.00 0.28 0.07 71 1014.8
20260505185037 64 0 0.0 1.0 0.00 0.28 0.07 72 1014.9
20260505184548 64 0 0.0 1.0 0.00 0.28 0.07 72 1014.9
20260505184037 63 0 0.0 1.0 0.00 0.28 0.07 76 1014.9
20260505183537 63 0 0.0 1.0 0.00 0.28 0.07 77 1014.9
20260505183110 62 0 0.0 1.0 0.00 0.28 0.07 79 1014.9
20260505182537 62 0 0.0 2.0 0.00 0.28 0.07 79 1015.0
20260505182037 61 0 0.0 2.0 0.00 0.28 0.07 80 1015.1
20260505181543 61 0 0.0 2.0 0.00 0.28 0.07 80 1015.1
20260505181037 61 0 0.0 1.0 0.00 0.28 0.07 81 1015.2
20260505180536 60 0 0.0 0.0 0.00 0.28 0.07 83 1015.1
20260505180131 60 0 0.0 1.0 0.00 0.28 0.07 85 1015.0
20260505175539 59 0 0.0 1.0 0.00 0.28 0.07 85 1015.1
20260505175037 59 0 0.0 1.0 0.00 0.28 0.07 84 1015.1
20260505174545 59 0 0.0 0.0 0.00 0.28 0.07 86 1015.1
20260505174038 58 0 0.0 0.0 0.00 0.28 0.07 87 1015.1
20260505173537 58 0 0.0 0.0 0.00 0.28 0.07 88 1015.1
20260505173051 58 0 0.0 0.0 0.00 0.28 0.07 89 1015.1
20260505172541 57 0 0.0 0.0 0.00 0.28 0.07 88 1015.2
20260505172037 57 0 0.0 0.0 0.00 0.28 0.07 90 1015.1
20260505171557 57 0 0.0 0.0 0.00 0.28 0.07 90 1015.1
20260505171037 56 0 0.0 0.0 0.00 0.28 0.07 90 1015.1
20260505170537 56 0 0.0 0.0 0.00 0.28 0.07 90 1015.0
20260505170046 56 0 0.0 0.0 0.00 0.28 0.07 91 1015.0
20260505165537 56 0 0.0 0.0 0.00 0.28 0.07 91 1015.0
20260505165038 55 0 0.0 0.0 0.00 0.28 0.07 91 1015.0
20260505164547 55 0 0.0 0.0 0.00 0.28 0.07 92 1015.0
20260505164037 55 0 0.0 0.0 0.00 0.28 0.07 92 1015.1
20260505163538 55 0 0.0 0.0 0.00 0.28 0.07 92 1015.1
20260505163049 55 0 0.0 0.0 0.00 0.28 0.07 92 1015.1
20260505162536 55 0 0.0 0.0 0.00 0.28 0.07 92 1015.1
20260505162037 55 0 0.0 0.0 0.00 0.28 0.07 92 1015.1
20260505161558 55 0 0.0 0.0 0.00 0.28 0.07 92 1015.0
20260505161038 54 0 0.0 0.0 0.00 0.28 0.07 92 1015.1
20260505160541 54 0 0.0 1.0 0.00 0.28 0.07 92 1015.0
20260505153044 54 0 0.0 0.0 0.00 0.28 0.07 93 1015.0
20260505152536 54 0 0.0 0.0 0.00 0.28 0.07 93 1015.0
20260505152036 54 0 0.0 0.0 0.00 0.28 0.07 93 1014.9
20260505151547 54 0 0.0 0.0 0.00 0.28 0.07 93 1014.9
20260505151038 54 0 0.0 0.0 0.00 0.28 0.07 93 1014.8
20260505150537 54 0 0.0 0.0 0.00 0.28 0.07 93 1014.7
20260505140537 54 0 0.0 0.0 0.00 0.28 0.07 93 1014.4
20260505125037 53 0 0.0 0.0 0.01 0.28 0.07 93 1014.0
20260505124551 53 0 0.0 0.0 0.01 0.28 0.07 93 1014.0
20260505124038 53 0 0.0 0.0 0.01 0.28 0.07 93 1013.9
20260505123541 53 0 0.0 0.0 0.01 0.28 0.07 93 1014.0
20260505123050 53 0 0.0 0.0 0.01 0.28 0.07 93 1014.0
20260505122538 53 0 0.0 0.0 0.01 0.28 0.07 93 1014.0
20260505122038 53 0 0.0 0.0 0.01 0.28 0.07 93 1014.0
20260505121553 53 0 0.0 0.0 0.01 0.28 0.07 93 1014.0
20260505121039 53 0 0.0 0.0 0.01 0.28 0.07 93 1014.0
20260505120537 53 0 0.0 0.0 0.01 0.28 0.07 93 1014.0
20260505120105 54 0 0.0 0.0 0.01 0.28 0.07 93 1013.9
20260505115537 53 0 0.0 0.0 0.00 0.27 0.06 93 1013.9
20260505115037 53 0 0.0 0.0 0.00 0.27 0.06 93 1013.9
20260505114547 53 0 0.0 0.0 0.00 0.27 0.06 93 1013.9
20260505114036 53 0 0.0 0.0 0.00 0.27 0.06 93 1013.9
20260505113536 53 0 0.0 0.0 0.00 0.27 0.06 93 1013.9
20260505113049 53 0 0.0 0.0 0.01 0.27 0.06 93 1014.0
20260505112537 54 0 0.0 0.0 0.01 0.27 0.06 93 1013.9
20260505112039 54 0 0.0 0.0 0.01 0.27 0.06 93 1014.0
20260505111547 54 0 0.0 0.0 0.01 0.27 0.06 93 1014.0
20260505111039 54 0 0.0 0.0 0.01 0.27 0.06 93 1014.0
20260505110539 54 0 0.0 0.0 0.01 0.27 0.06 93 1014.0
20260505102039 53 0 0.0 0.0 0.02 0.26 0.05 93 1013.9
20260505101551 53 0 0.0 0.0 0.02 0.26 0.05 93 1014.0
20260505101038 53 0 0.0 0.0 0.02 0.26 0.05 93 1014.0
20260505100538 53 0 0.0 0.0 0.02 0.26 0.05 93 1014.0
20260505100051 53 0 0.0 0.0 0.02 0.26 0.05 93 1014.0
20260505095538 53 0 0.0 0.0 0.01 0.25 0.04 93 1014.0
20260505095037 53 0 0.0 0.0 0.01 0.25 0.04 93 1013.9
20260505094550 53 0 0.0 0.0 0.01 0.25 0.04 93 1014.0
20260505094041 53 0 0.0 0.0 0.01 0.25 0.04 93 1014.0
20260505093537 53 0 0.0 0.0 0.01 0.25 0.04 93 1014.0
20260505093054 53 0 0.0 0.0 0.02 0.25 0.04 93 1014.0
20260505092538 53 0 0.0 0.0 0.02 0.25 0.04 93 1014.0
20260505092036 53 0 0.0 0.0 0.01 0.24 0.03 93 1014.0
20260505091547 53 0 0.0 0.0 0.01 0.24 0.03 93 1014.1
20260505091036 53 0 0.0 0.0 0.01 0.24 0.03 93 1014.0
20260505090538 53 0 0.0 0.0 0.01 0.24 0.03 93 1014.1
20260505090050 53 0 0.0 0.0 0.02 0.24 0.03 93 1014.1
20260505085538 53 0 0.0 0.0 0.02 0.24 0.03 93 1014.1
20260505085038 53 0 0.0 0.0 0.02 0.24 0.03 93 1014.1
20260505084550 53 0 0.0 0.0 0.03 0.24 0.03 93 1014.2
20260505084038 53 0 0.0 0.0 0.03 0.24 0.03 93 1014.1
20260505083538 53 0 0.0 0.0 0.03 0.24 0.03 93 1014.2
20260505083051 53 0 0.0 0.0 0.02 0.23 0.02 93 1014.2
20260505082537 54 0 0.0 0.0 0.02 0.23 0.02 93 1014.3
20260505082037 54 0 0.0 0.0 0.02 0.23 0.02 93 1014.3
20260505081545 54 0 0.0 0.0 0.02 0.23 0.02 93 1014.3
20260505081037 54 0 0.0 0.0 0.02 0.23 0.02 93 1014.4
20260505080537 54 0 0.0 0.0 0.02 0.23 0.02 93 1014.5